Regional Weather Roundup
Issued by NWS Green Bay, WI

Home | Current Version | Previous Version | Graphics & Text | Print | Product List | Glossary Off
Versions: 1 2 3 4 5 6 7 8 9 10 11 12 13 14 15 16 17 18 19 20 21 22 23 24 25 26 27 28 29 30 31 32 33 34 35 36 37 38 39 40 41 42 43 44 45 46 47 48 49 50

000
ASUS43 KGRB 050311
RWRGRB

NORTH-CENTRAL AND NORTHEAST WISCONSIN REGIONAL WEATHER ROUNDUP
NATIONAL WEATHER SERVICE GREEN BAY WI
1000 PM CDT TUE AUG 04 2015

WIZ005-009-010>012-018-019-050400-
NORTH CENTRAL WISCONSIN

CITY           SKY/WX    TMP DP  RH WIND       PRES   REMARKS
IRONWOOD       CLEAR     52  50  93 CALM      30.03R
MANITOWISH WTR CLEAR     55  51  86 CALM      30.05R
ARBOR VITAE    CLEAR     57  51  79 CALM      30.05R
EAGLE RIVER    CLEAR     54  47  77 NE3       30.05R
LAND O LAKES   CLEAR     55  50  81 N3        30.06R
RHINELANDER    CLOUDY    60  52  74 CALM      30.05R
PHILLIPS       MOCLDY    57  53  85 CALM      30.04R
ANTIGO         MOCLDY    56  53  89 CALM      30.05R
TOMAHAWK       CLOUDY    60  52  76 CALM      30.05R
MERRILL        NOT AVBL
$$

WIZ013-073-050400-
NORTHEAST WISCONSIN

CITY           SKY/WX    TMP DP  RH WIND       PRES   REMARKS
IRON MOUNTAIN  CLEAR     55  50  83 N5        30.03R
MARINETTE      PTCLDY    61  54  77 NE5       30.01R
OCONTO         MOCLDY    63  58  85 NE5       30.01R
$$

WIZ017-030-035>037-045-050400-
CENTRAL WISCONSIN

CITY           SKY/WX    TMP DP  RH WIND       PRES   REMARKS
MEDFORD        PTCLDY    56  55  94 NE5       30.03R
WAUSAU         MOCLDY    63  54  72 CALM      30.02R
MOSINEE        CLEAR     61  55  82 CALM      30.03R
MARSHFIELD     CLEAR     62  54  74 CALM      30.02R
WISC RAPIDS    CLEAR     61  53  75 CALM      30.03R
STEVENS POINT  PTCLDY    59  53  82 CALM      30.03R
WAUPACA        CLEAR     63  56  80 CALM      30.01S
SHAWANO        CLOUDY    66  55  66 CALM      30.02R
CLINTONVILLE   PTCLDY    63  52  67 CALM      30.01R
$$

WIZ038-039-048-051-050400-
FOX VALLEY

CITY           SKY/WX    TMP DP  RH WIND       PRES   REMARKS
NWS GREEN BAY  CLEAR     62  58  86 N5        30.01R
APPLETON       PTCLDY    64  52  63 NW6       30.02R
OSHKOSH        CLEAR     62  55  77 CALM      30.01R
FOND DU LAC    CLEAR     63  56  78 W3        30.01R
$$

WIZ022-050-052-050400-
EAST CENTRAL WISCONSIN

CITY           SKY/WX    TMP DP  RH WIND       PRES   REMARKS
STURGEON BAY   CLEAR     63  55  77 E5        30.04R
MANITOWOC      CLEAR     62  60  93 MISG      30.01R
SHEBOYGAN      PTCLDY    60  55  83 CALM      30.01R
$$

LMZ563-521-522-541>543-050400-
LAKESHORE

STATION/POSITION TIME  TEMP    WIND        PRES    VSBY  WAVE
                       AIR SEA DIR/SP/G                  HT/PER
                 (UTC) (F)     (DEG/KT/KT) (MB)    (MI)  (FT/S)
SHEBOYGAN LKSHOR 0300   71     270/  1/  2 1016.3R
KEWAUNEE LKSHORE 0200   63      40/  6/  8 1015.0R
ALGOMA MARINA    0213           40/  6/  8   N/A
NORTHPORT PIER   0200   64      40/  7/  9 1015.9R
N MID LAKE BUOY  0250   63 68  340/ 12/ 14 1016.1R         1/ 3
SISTER BAY LKSHO 0248   61      CALM  /  3   N/A
CHAMBERS ISLAND  0200   65      40/  7/ 10 1015.9R
MENOMINEE LKSHOR 0200   65      40/  8/ 10 1016.5R
$$



USA.gov is the U.S. government's official web portal to all federal, state and local government web resources and services.